Time,TemperatureF,DewpointF,PressureIn,WindDirection,WindDirectionDegrees,WindSpeedMPH,WindSpeedGustMPH,Humidity,HourlyPrecipIn,Conditions,Clouds,dailyrainin,SoftwareType,DateUTC
2013-03-21 00:00:00,41.8,24.1,29.82,West,273,1.0,8.0,49,0.00,,---,0.00,VWS V14.01,2013-03-21 04:00:00,
2013-03-21 00:05:00,41.4,24.2,29.83,West,259,1.0,8.0,50,0.00,,---,0.00,VWS V14.01,2013-03-21 04:05:00,
2013-03-21 00:10:00,41.1,24.4,29.83,NNW,335,2.0,8.0,51,0.00,,---,0.00,VWS V14.01,2013-03-21 04:10:00,
2013-03-21 00:15:00,40.9,24.6,29.84,North,5,0.0,8.0,52,0.00,,---,0.00,VWS V14.01,2013-03-21 04:15:00,
2013-03-21 00:20:00,40.7,24.9,29.84,NNW,338,0.0,8.0,53,0.00,,---,0.00,VWS V14.01,2013-03-21 04:20:00,
2013-03-21 00:25:00,40.6,25.3,29.84,West,269,1.0,8.0,54,0.00,,---,0.00,VWS V14.01,2013-03-21 04:25:00,
2013-03-21 00:30:00,40.5,26.0,29.84,NE,43,2.0,8.0,56,0.00,,---,0.00,VWS V14.01,2013-03-21 04:30:00,
2013-03-21 00:35:00,40.2,25.3,29.84,North,1,1.0,2.0,55,0.00,,---,0.00,VWS V14.01,2013-03-21 04:35:00,
2013-03-21 00:40:00,39.9,25.5,29.84,WNW,283,1.0,4.0,56,0.00,,---,0.00,VWS V14.01,2013-03-21 04:40:00,
2013-03-21 00:45:00,39.8,25.8,29.84,West,278,1.0,4.0,57,0.00,,---,0.00,VWS V14.01,2013-03-21 04:45:00,
2013-03-21 00:50:00,39.7,26.1,29.84,NE,34,1.0,4.0,58,0.00,,---,0.00,VWS V14.01,2013-03-21 04:50:00,
2013-03-21 00:55:00,39.6,26.1,29.84,NW,304,2.0,6.0,58,0.00,,---,0.00,VWS V14.01,2013-03-21 04:55:00,
2013-03-21 01:00:00,39.5,26.0,29.83,NNE,12,4.0,6.0,58,0.00,,---,0.00,VWS V14.01,2013-03-21 05:00:00,
2013-03-21 01:05:00,39.3,26.2,29.83,NE,49,2.0,3.0,59,0.00,,---,0.00,VWS V14.01,2013-03-21 05:05:00,
2013-03-21 01:10:00,39.1,26.0,29.84,West,278,1.0,5.0,59,0.00,,---,0.00,VWS V14.01,2013-03-21 05:10:00,
2013-03-21 01:15:00,39.0,26.3,29.84,WNW,300,0.0,5.0,60,0.00,,---,0.00,VWS V14.01,2013-03-21 05:15:00,
2013-03-21 01:20:00,38.8,26.1,29.83,NNW,335,0.0,5.0,60,0.00,,---,0.00,VWS V14.01,2013-03-21 05:20:00,
2013-03-21 01:25:00,38.7,26.0,29.83,NNW,328,2.0,6.0,60,0.00,,---,0.00,VWS V14.01,2013-03-21 05:25:00,
2013-03-21 01:30:00,38.7,26.0,29.82,North,359,0.0,6.0,60,0.00,,---,0.00,VWS V14.01,2013-03-21 05:30:00,
2013-03-21 01:35:00,38.6,26.3,29.82,WNW,283,1.0,3.0,61,0.00,,---,0.00,VWS V14.01,2013-03-21 05:35:00,
2013-03-21 01:40:00,38.4,26.1,29.82,WNW,284,3.0,5.0,61,0.00,,---,0.00,VWS V14.01,2013-03-21 05:40:00,
2013-03-21 01:45:00,38.3,26.0,29.83,NNE,30,0.0,5.0,61,0.00,,---,0.00,VWS V14.01,2013-03-21 05:45:00,
2013-03-21 01:50:00,38.3,26.0,29.83,North,9,2.0,5.0,61,0.00,,---,0.00,VWS V14.01,2013-03-21 05:50:00,
2013-03-21 01:55:00,38.2,26.0,29.83,NW,309,0.0,5.0,61,0.00,,---,0.00,VWS V14.01,2013-03-21 05:55:00,
2013-03-21 02:00:00,38.1,25.9,29.83,NNE,13,3.0,5.0,61,0.00,,---,0.00,VWS V14.01,2013-03-21 06:00:00,
2013-03-21 02:05:00,38.1,25.9,29.83,NNW,347,1.0,3.0,61,0.00,,---,0.00,VWS V14.01,2013-03-21 06:05:00,
2013-03-21 02:10:00,38.1,25.9,29.83,NW,305,0.0,5.0,61,0.00,,---,0.00,VWS V14.01,2013-03-21 06:10:00,
2013-03-21 02:15:00,38.1,25.9,29.84,West,277,1.0,5.0,61,0.00,,---,0.00,VWS V14.01,2013-03-21 06:15:00,
2013-03-21 02:20:00,38.1,25.9,29.83,West,276,2.0,5.0,61,0.00,,---,0.00,VWS V14.01,2013-03-21 06:20:00,
2013-03-21 02:25:00,38.1,25.9,29.83,North,350,2.0,5.0,61,0.00,,---,0.00,VWS V14.01,2013-03-21 06:25:00,
2013-03-21 02:30:00,38.1,25.9,29.83,NW,323,0.0,5.0,61,0.00,,---,0.00,VWS V14.01,2013-03-21 06:30:00,
2013-03-21 02:35:00,38.0,25.8,29.82,West,281,0.0,1.0,61,0.00,,---,0.00,VWS V14.01,2013-03-21 06:35:00,
2013-03-21 02:40:00,37.9,25.7,29.82,North,4,0.0,3.0,61,0.00,,---,0.00,VWS V14.01,2013-03-21 06:40:00,
2013-03-21 02:45:00,37.7,25.9,29.82,NW,317,0.0,5.0,62,0.00,,---,0.00,VWS V14.01,2013-03-21 06:45:00,
2013-03-21 02:50:00,37.5,25.7,29.82,North,4,0.0,5.0,62,0.00,,---,0.00,VWS V14.01,2013-03-21 06:50:00,
2013-03-21 02:55:00,37.2,25.8,29.82,West,262,1.0,5.0,63,0.00,,---,0.00,VWS V14.01,2013-03-21 06:55:00,
2013-03-21 03:00:00,36.9,25.5,29.82,North,1,0.0,5.0,63,0.00,,---,0.00,VWS V14.01,2013-03-21 07:00:00,
2013-03-21 03:05:00,36.7,25.3,29.82,North,350,2.0,2.0,63,0.00,,---,0.00,VWS V14.01,2013-03-21 07:05:00,
2013-03-21 03:10:00,36.5,25.1,29.82,NNE,29,1.0,4.0,63,0.00,,---,0.00,VWS V14.01,2013-03-21 07:10:00,
2013-03-21 03:15:00,36.4,25.0,29.82,WSW,249,1.0,5.0,63,0.00,,---,0.00,VWS V14.01,2013-03-21 07:15:00,
2013-03-21 03:20:00,36.3,24.9,29.81,NNW,335,2.0,5.0,63,0.00,,---,0.00,VWS V14.01,2013-03-21 07:20:00,
2013-03-21 03:25:00,36.2,24.8,29.81,NNE,30,2.0,10.0,63,0.00,,---,0.00,VWS V14.01,2013-03-21 07:25:00,
2013-03-21 03:30:00,36.1,24.7,29.81,ENE,75,2.0,10.0,63,0.00,,---,0.00,VWS V14.01,2013-03-21 07:30:00,
2013-03-21 03:35:00,36.0,24.6,29.81,West,266,2.0,7.0,63,0.00,,---,0.00,VWS V14.01,2013-03-21 07:35:00,
2013-03-21 03:40:00,35.9,24.5,29.81,NW,326,1.0,9.0,63,0.00,,---,0.00,VWS V14.01,2013-03-21 07:40:00,
2013-03-21 03:45:00,35.6,24.6,29.81,West,267,1.0,9.0,64,0.00,,---,0.00,VWS V14.01,2013-03-21 07:45:00,
2013-03-21 03:50:00,35.5,24.5,29.81,North,351,1.0,9.0,64,0.00,,---,0.00,VWS V14.01,2013-03-21 07:50:00,
2013-03-21 03:55:00,35.4,24.8,29.81,NNE,25,2.0,9.0,65,0.00,,---,0.00,VWS V14.01,2013-03-21 07:55:00,
2013-03-21 04:00:00,35.1,24.9,29.81,West,264,0.0,9.0,66,0.00,,---,0.00,VWS V14.01,2013-03-21 08:00:00,
2013-03-21 04:05:00,34.9,25.1,29.82,NNE,12,0.0,3.0,67,0.00,,---,0.00,VWS V14.01,2013-03-21 08:05:00,
2013-03-21 04:10:00,34.7,25.6,29.82,North,356,3.0,4.0,69,0.00,,---,0.00,VWS V14.01,2013-03-21 08:10:00,
2013-03-21 04:15:00,34.5,26.1,29.82,NNE,18,2.0,7.0,71,0.00,,---,0.00,VWS V14.01,2013-03-21 08:15:00,
2013-03-21 04:20:00,34.2,26.5,29.82,WNW,288,0.0,7.0,73,0.00,,---,0.00,VWS V14.01,2013-03-21 08:20:00,
2013-03-21 04:25:00,34.0,26.3,29.82,NE,43,1.0,7.0,73,0.00,,---,0.00,VWS V14.01,2013-03-21 08:25:00,
2013-03-21 04:30:00,33.9,26.8,29.82,East,80,3.0,7.0,75,0.00,,---,0.00,VWS V14.01,2013-03-21 08:30:00,
2013-03-21 04:35:00,33.8,26.7,29.82,NW,312,3.0,6.0,75,0.00,,---,0.00,VWS V14.01,2013-03-21 08:35:00,
2013-03-21 04:40:00,33.7,27.0,29.82,NW,316,0.0,6.0,76,0.00,,---,0.00,VWS V14.01,2013-03-21 08:40:00,
2013-03-21 04:45:00,33.7,27.0,29.82,NNW,327,3.0,7.0,76,0.00,,---,0.00,VWS V14.01,2013-03-21 08:45:00,
2013-03-21 04:50:00,33.6,27.2,29.82,North,4,1.0,7.0,77,0.00,,---,0.00,VWS V14.01,2013-03-21 08:50:00,
2013-03-21 04:55:00,33.4,27.3,29.82,NNE,25,1.0,7.0,78,0.00,,---,0.00,VWS V14.01,2013-03-21 08:55:00,
2013-03-21 05:00:00,33.3,27.8,29.82,NW,314,1.0,7.0,80,0.00,,---,0.00,VWS V14.01,2013-03-21 09:00:00,
2013-03-21 05:05:00,33.1,27.9,29.83,North,354,4.0,5.0,81,0.00,,---,0.00,VWS V14.01,2013-03-21 09:05:00,
2013-03-21 05:10:00,33.0,27.8,29.83,West,267,0.0,5.0,81,0.00,,---,0.00,VWS V14.01,2013-03-21 09:10:00,
2013-03-21 05:15:00,32.9,27.7,29.83,WNW,291,0.0,5.0,81,0.00,,---,0.00,VWS V14.01,2013-03-21 09:15:00,
2013-03-21 05:20:00,32.9,27.4,29.83,NNW,341,3.0,5.0,80,0.00,,---,0.00,VWS V14.01,2013-03-21 09:20:00,
2013-03-21 05:25:00,32.8,27.0,29.83,NW,321,2.0,7.0,79,0.00,,---,0.00,VWS V14.01,2013-03-21 09:25:00,
2013-03-21 05:30:00,32.8,26.7,29.83,NNE,20,4.0,7.0,78,0.00,,---,0.00,VWS V14.01,2013-03-21 09:30:00,
2013-03-21 05:35:00,32.9,26.2,29.83,NNW,337,4.0,4.0,76,0.00,,---,0.00,VWS V14.01,2013-03-21 09:35:00,
2013-03-21 05:40:00,32.9,25.5,29.83,WSW,257,0.0,6.0,74,0.00,,---,0.00,VWS V14.01,2013-03-21 09:40:00,
2013-03-21 05:45:00,32.8,24.8,29.83,West,267,3.0,6.0,72,0.00,,---,0.00,VWS V14.01,2013-03-21 09:45:00,
2013-03-21 05:50:00,32.8,24.8,29.83,NE,54,2.0,6.0,72,0.00,,---,0.00,VWS V14.01,2013-03-21 09:50:00,
2013-03-21 05:55:00,32.7,24.4,29.84,WSW,257,1.0,7.0,71,0.00,,---,0.00,VWS V14.01,2013-03-21 09:55:00,
2013-03-21 06:00:00,32.7,24.7,29.84,WNW,300,1.0,7.0,72,0.00,,---,0.00,VWS V14.01,2013-03-21 10:00:00,
2013-03-21 06:05:00,32.5,23.8,29.84,NNE,32,1.0,8.0,70,0.00,,---,0.00,VWS V14.01,2013-03-21 10:05:00,
2013-03-21 06:10:00,32.5,23.8,29.83,East,99,1.0,8.0,70,0.00,,---,0.00,VWS V14.01,2013-03-21 10:10:00,
2013-03-21 06:15:00,32.5,23.8,29.84,NNW,337,0.0,8.0,70,0.00,,---,0.00,VWS V14.01,2013-03-21 10:15:00,
2013-03-21 06:20:00,32.5,24.2,29.84,NNW,339,1.0,8.0,71,0.00,,---,0.00,VWS V14.01,2013-03-21 10:20:00,
2013-03-21 06:25:00,32.3,23.6,29.84,NW,318,1.0,8.0,70,0.00,,---,0.00,VWS V14.01,2013-03-21 10:25:00,
2013-03-21 06:30:00,32.3,23.6,29.84,West,262,0.0,8.0,70,0.00,,---,0.00,VWS V14.01,2013-03-21 10:30:00,
2013-03-21 06:35:00,32.2,23.5,29.84,NW,309,1.0,2.0,70,0.00,,---,0.00,VWS V14.01,2013-03-21 10:35:00,
2013-03-21 06:40:00,32.3,22.9,29.84,NNE,18,3.0,3.0,68,0.00,,---,0.00,VWS V14.01,2013-03-21 10:40:00,
2013-03-21 06:45:00,32.5,22.1,29.84,NW,326,2.0,4.0,65,0.00,,---,0.00,VWS V14.01,2013-03-21 10:45:00,
2013-03-21 06:50:00,32.6,20.7,29.84,NNE,22,1.0,4.0,61,0.00,,---,0.00,VWS V14.01,2013-03-21 10:50:00,
2013-03-21 06:55:00,32.7,19.6,29.84,NW,308,0.0,5.0,58,0.00,,---,0.00,VWS V14.01,2013-03-21 10:55:00,
2013-03-21 07:00:00,32.8,18.8,29.84,NW,323,0.0,5.0,56,0.00,,---,0.00,VWS V14.01,2013-03-21 11:00:00,
2013-03-21 07:05:00,32.9,19.8,29.84,WSW,249,2.0,3.0,58,0.00,,---,0.00,VWS V14.01,2013-03-21 11:05:00,
2013-03-21 07:10:00,33.0,19.0,29.84,WNW,293,3.0,4.0,56,0.00,,---,0.00,VWS V14.01,2013-03-21 11:10:00,
2013-03-21 07:15:00,33.1,18.3,29.84,WNW,290,1.0,5.0,54,0.00,,---,0.00,VWS V14.01,2013-03-21 11:15:00,
2013-03-21 07:20:00,33.1,17.0,29.84,West,275,1.0,7.0,51,0.00,,---,0.00,VWS V14.01,2013-03-21 11:20:00,
2013-03-21 07:25:00,33.1,17.0,29.84,NE,40,0.0,7.0,51,0.00,,---,0.00,VWS V14.01,2013-03-21 11:25:00,
2013-03-21 07:30:00,33.2,16.6,29.84,NNW,348,1.0,7.0,50,0.00,,---,0.00,VWS V14.01,2013-03-21 11:30:00,
2013-03-21 07:35:00,33.2,16.6,29.84,North,8,2.0,7.0,50,0.00,,---,0.00,VWS V14.01,2013-03-21 11:35:00,
2013-03-21 07:40:00,33.2,17.0,29.84,SW,221,0.0,7.0,51,0.00,,---,0.00,VWS V14.01,2013-03-21 11:40:00,
2013-03-21 07:45:00,33.1,17.0,29.84,ENE,69,1.0,7.0,51,0.00,,---,0.00,VWS V14.01,2013-03-21 11:45:00,
2013-03-21 07:50:00,33.1,17.4,29.84,SW,228,0.0,7.0,52,0.00,,---,0.00,VWS V14.01,2013-03-21 11:50:00,
2013-03-21 07:55:00,33.2,17.0,29.85,WNW,293,1.0,7.0,51,0.00,,---,0.00,VWS V14.01,2013-03-21 11:55:00,
2013-03-21 08:00:00,33.2,17.5,29.84,SW,230,2.0,8.0,52,0.00,,---,0.00,VWS V14.01,2013-03-21 12:00:00,
2013-03-21 08:05:00,33.2,17.0,29.85,NW,318,2.0,6.0,51,0.00,,---,0.00,VWS V14.01,2013-03-21 12:05:00,
2013-03-21 08:10:00,33.1,16.5,29.85,SW,234,1.0,6.0,50,0.00,,---,0.00,VWS V14.01,2013-03-21 12:10:00,
2013-03-21 08:15:00,33.2,16.6,29.84,NNW,332,5.0,6.0,50,0.00,,---,0.00,VWS V14.01,2013-03-21 12:15:00,
2013-03-21 08:20:00,33.2,16.6,29.84,WNW,297,0.0,7.0,50,0.00,,---,0.00,VWS V14.01,2013-03-21 12:20:00,
2013-03-21 08:25:00,33.2,16.6,29.85,NNE,13,3.0,7.0,50,0.00,,---,0.00,VWS V14.01,2013-03-21 12:25:00,
2013-03-21 08:30:00,33.2,16.1,29.85,ENE,60,2.0,7.0,49,0.00,,---,0.00,VWS V14.01,2013-03-21 12:30:00,
2013-03-21 08:35:00,33.2,16.6,29.84,SSW,203,0.0,3.0,50,0.00,,---,0.00,VWS V14.01,2013-03-21 12:35:00,
2013-03-21 08:40:00,33.2,16.1,29.84,ENE,70,2.0,6.0,49,0.00,,---,0.00,VWS V14.01,2013-03-21 12:40:00,
2013-03-21 08:45:00,33.1,15.6,29.84,WNW,285,3.0,6.0,48,0.00,,---,0.00,VWS V14.01,2013-03-21 12:45:00,
2013-03-21 08:50:00,32.9,14.9,29.84,NW,322,4.0,6.0,47,0.00,,---,0.00,VWS V14.01,2013-03-21 12:50:00,
2013-03-21 08:55:00,32.8,14.3,29.84,WNW,302,3.0,6.0,46,0.00,,---,0.00,VWS V14.01,2013-03-21 12:55:00,
2013-03-21 09:00:00,32.7,14.2,29.84,West,275,4.0,6.0,46,0.00,,---,0.00,VWS V14.01,2013-03-21 13:00:00,
2013-03-21 09:05:00,32.6,14.1,29.84,NNW,331,1.0,5.0,46,0.00,,---,0.00,VWS V14.01,2013-03-21 13:05:00,
2013-03-21 09:10:00,32.5,14.5,29.84,NNW,332,3.0,6.0,47,0.00,,---,0.00,VWS V14.01,2013-03-21 13:10:00,
2013-03-21 09:15:00,32.6,15.1,29.83,ENE,70,6.0,9.0,48,0.00,,---,0.00,VWS V14.01,2013-03-21 13:15:00,
2013-03-21 09:20:00,32.6,14.6,29.83,NNE,30,2.0,10.0,47,0.00,,---,0.00,VWS V14.01,2013-03-21 13:20:00,
2013-03-21 09:25:00,32.8,15.3,29.84,NNW,348,2.0,10.0,48,0.00,,---,0.00,VWS V14.01,2013-03-21 13:25:00,
2013-03-21 09:30:00,32.7,14.7,29.84,WSW,255,2.0,13.0,47,0.00,,---,0.00,VWS V14.01,2013-03-21 13:30:00,
2013-03-21 09:35:00,32.7,14.7,29.84,WSW,246,1.0,6.0,47,0.00,,---,0.00,VWS V14.01,2013-03-21 13:35:00,
2013-03-21 09:40:00,32.7,14.2,29.84,North,1,2.0,8.0,46,0.00,,---,0.00,VWS V14.01,2013-03-21 13:40:00,
2013-03-21 09:45:00,32.8,14.8,29.84,North,1,9.0,9.0,47,0.00,,---,0.00,VWS V14.01,2013-03-21 13:45:00,
2013-03-21 09:50:00,33.0,15.0,29.84,NW,309,1.0,9.0,47,0.00,,---,0.00,VWS V14.01,2013-03-21 13:50:00,
2013-03-21 09:55:00,33.1,15.1,29.83,WNW,298,2.0,9.0,47,0.00,,---,0.00,VWS V14.01,2013-03-21 13:55:00,
2013-03-21 10:00:00,33.3,14.3,29.83,NE,49,3.0,9.0,45,0.00,,---,0.00,VWS V14.01,2013-03-21 14:00:00,
2013-03-21 10:05:00,33.6,15.0,29.83,NNW,335,3.0,5.0,46,0.00,,---,0.00,VWS V14.01,2013-03-21 14:05:00,
2013-03-21 10:10:00,34.0,14.4,29.83,West,278,1.0,11.0,44,0.00,,---,0.00,VWS V14.01,2013-03-21 14:10:00,
2013-03-21 10:15:00,34.2,14.1,29.83,NW,316,3.0,11.0,43,0.00,,---,0.00,VWS V14.01,2013-03-21 14:15:00,
2013-03-21 10:20:00,34.5,14.9,29.83,ENE,63,4.0,11.0,44,0.00,,---,0.00,VWS V14.01,2013-03-21 14:20:00,
2013-03-21 10:25:00,34.5,14.9,29.83,NNE,16,3.0,11.0,44,0.00,,---,0.00,VWS V14.01,2013-03-21 14:25:00,
2013-03-21 10:30:00,34.5,15.9,29.83,NE,37,4.0,11.0,46,0.00,,---,0.00,VWS V14.01,2013-03-21 14:30:00,
2013-03-21 10:35:00,34.3,15.2,29.83,West,276,1.0,6.0,45,0.00,,---,0.00,VWS V14.01,2013-03-21 14:35:00,
2013-03-21 10:40:00,34.1,15.0,29.83,WNW,298,3.0,7.0,45,0.00,,---,0.00,VWS V14.01,2013-03-21 14:40:00,
2013-03-21 10:45:00,34.1,15.0,29.83,NE,37,3.0,8.0,45,0.00,,---,0.00,VWS V14.01,2013-03-21 14:45:00,
2013-03-21 10:50:00,34.0,14.9,29.83,NW,318,4.0,9.0,45,0.00,,---,0.00,VWS V14.01,2013-03-21 14:50:00,
2013-03-21 10:55:00,34.3,15.7,29.83,North,351,0.0,9.0,46,0.00,,---,0.00,VWS V14.01,2013-03-21 14:55:00,
2013-03-21 11:00:00,34.6,15.5,29.83,West,270,2.0,9.0,45,0.00,,---,0.00,VWS V14.01,2013-03-21 15:00:00,
2013-03-21 11:05:00,34.7,14.5,29.83,East,84,1.0,8.0,43,0.00,,---,0.00,VWS V14.01,2013-03-21 15:05:00,
2013-03-21 11:10:00,34.8,15.1,29.83,West,276,2.0,8.0,44,0.00,,---,0.00,VWS V14.01,2013-03-21 15:10:00,
2013-03-21 11:15:00,35.0,14.8,29.83,NW,307,0.0,8.0,43,0.00,,---,0.00,VWS V14.01,2013-03-21 15:15:00,
2013-03-21 11:20:00,34.9,14.7,29.83,West,266,4.0,12.0,43,0.00,,---,0.00,VWS V14.01,2013-03-21 15:20:00,
2013-03-21 11:25:00,35.1,14.9,29.83,WSW,248,4.0,12.0,43,0.00,,---,0.00,VWS V14.01,2013-03-21 15:25:00,
2013-03-21 11:30:00,35.1,14.9,29.83,West,271,2.0,12.0,43,0.00,,---,0.00,VWS V14.01,2013-03-21 15:30:00,
2013-03-21 11:35:00,35.1,15.9,29.83,WNW,293,2.0,2.0,45,0.00,,---,0.00,VWS V14.01,2013-03-21 15:35:00,
2013-03-21 11:40:00,35.4,15.1,29.83,WNW,301,2.0,6.0,43,0.00,,---,0.00,VWS V14.01,2013-03-21 15:40:00,
2013-03-21 11:45:00,35.2,14.4,29.83,West,271,2.0,8.0,42,0.00,,---,0.00,VWS V14.01,2013-03-21 15:45:00,
2013-03-21 11:50:00,35.5,15.2,29.83,NW,318,2.0,8.0,43,0.00,,---,0.00,VWS V14.01,2013-03-21 15:50:00,
2013-03-21 11:55:00,36.2,14.8,29.83,SE,129,0.0,9.0,41,0.00,,---,0.00,VWS V14.01,2013-03-21 15:55:00,
2013-03-21 12:00:00,36.7,15.2,29.82,WNW,300,1.0,12.0,41,0.00,,---,0.00,VWS V14.01,2013-03-21 16:00:00,
2013-03-21 12:05:00,36.7,13.5,29.83,SW,226,2.0,7.0,38,0.00,,---,0.00,VWS V14.01,2013-03-21 16:05:00,
2013-03-21 12:10:00,36.4,13.8,29.83,NNE,13,6.0,8.0,39,0.00,,---,0.00,VWS V14.01,2013-03-21 16:10:00,
2013-03-21 12:15:00,36.1,14.7,29.83,NNW,346,2.0,8.0,41,0.00,,---,0.00,VWS V14.01,2013-03-21 16:15:00,
2013-03-21 12:20:00,35.9,14.5,29.82,WNW,303,3.0,8.0,41,0.00,,---,0.00,VWS V14.01,2013-03-21 16:20:00,
2013-03-21 12:25:00,35.5,14.1,29.83,WNW,302,3.0,9.0,41,0.00,,---,0.00,VWS V14.01,2013-03-21 16:25:00,
2013-03-21 12:30:00,35.3,13.4,29.82,NNE,18,3.0,9.0,40,0.00,,---,0.00,VWS V14.01,2013-03-21 16:30:00,
2013-03-21 12:35:00,35.9,13.9,29.82,WNW,302,1.0,10.0,40,0.00,,---,0.00,VWS V14.01,2013-03-21 16:35:00,
2013-03-21 12:40:00,36.5,14.5,29.82,WSW,238,2.0,10.0,40,0.00,,---,0.00,VWS V14.01,2013-03-21 16:40:00,
2013-03-21 12:45:00,36.3,13.7,29.82,East,98,3.0,10.0,39,0.00,,---,0.00,VWS V14.01,2013-03-21 16:45:00,
2013-03-21 12:50:00,36.5,13.9,29.82,SW,228,3.0,10.0,39,0.00,,---,0.00,VWS V14.01,2013-03-21 16:50:00,
2013-03-21 12:55:00,36.7,12.9,29.82,NNW,335,3.0,10.0,37,0.00,,---,0.00,VWS V14.01,2013-03-21 16:55:00,
2013-03-21 13:00:00,36.8,14.2,29.82,West,263,1.0,10.0,39,0.00,,---,0.00,VWS V14.01,2013-03-21 17:00:00,
2013-03-21 13:05:00,36.5,12.7,29.82,WSW,240,3.0,7.0,37,0.00,,---,0.00,VWS V14.01,2013-03-21 17:05:00,
2013-03-21 13:10:00,36.2,13.6,29.81,WNW,293,3.0,9.0,39,0.00,,---,0.00,VWS V14.01,2013-03-21 17:10:00,
2013-03-21 13:15:00,36.5,12.7,29.81,West,271,4.0,9.0,37,0.00,,---,0.00,VWS V14.01,2013-03-21 17:15:00,
2013-03-21 13:20:00,36.6,13.4,29.81,SW,226,1.0,10.0,38,0.00,,---,0.00,VWS V14.01,2013-03-21 17:20:00,
2013-03-21 13:25:00,37.1,12.6,29.81,West,259,3.0,10.0,36,0.00,,---,0.00,VWS V14.01,2013-03-21 17:25:00,
2013-03-21 13:30:00,36.8,12.4,29.81,West,264,4.0,11.0,36,0.00,,---,0.00,VWS V14.01,2013-03-21 17:30:00,
2013-03-21 13:35:00,36.3,12.5,29.81,NNW,338,2.0,7.0,37,0.00,,---,0.00,VWS V14.01,2013-03-21 17:35:00,
2013-03-21 13:40:00,36.3,13.1,29.81,NNW,343,2.0,10.0,38,0.00,,---,0.00,VWS V14.01,2013-03-21 17:40:00,
2013-03-21 13:45:00,36.3,12.5,29.81,NNW,340,3.0,10.0,37,0.00,,---,0.00,VWS V14.01,2013-03-21 17:45:00,
2013-03-21 13:50:00,36.3,13.1,29.81,NNW,327,4.0,10.0,38,0.00,,---,0.00,VWS V14.01,2013-03-21 17:50:00,
2013-03-21 13:55:00,35.9,13.4,29.81,NNW,347,3.0,10.0,39,0.00,,---,0.00,VWS V14.01,2013-03-21 17:55:00,
2013-03-21 14:00:00,35.5,13.6,29.81,West,281,2.0,10.0,40,0.00,,---,0.00,VWS V14.01,2013-03-21 18:00:00,
2013-03-21 14:05:00,35.2,13.3,29.81,North,3,2.0,6.0,40,0.00,,---,0.00,VWS V14.01,2013-03-21 18:05:00,
2013-03-21 14:10:00,35.5,13.6,29.81,NNW,327,5.0,6.0,40,0.00,,---,0.00,VWS V14.01,2013-03-21 18:10:00,
2013-03-21 14:15:00,35.7,12.6,29.81,NNW,327,1.0,9.0,38,0.00,,---,0.00,VWS V14.01,2013-03-21 18:15:00,
2013-03-21 14:20:00,35.9,13.9,29.80,NNE,33,2.0,9.0,40,0.00,,---,0.00,VWS V14.01,2013-03-21 18:20:00,
2013-03-21 14:25:00,36.1,12.4,29.81,SSE,153,1.0,9.0,37,0.00,,---,0.00,VWS V14.01,2013-03-21 18:25:00,
2013-03-21 14:30:00,36.1,12.4,29.80,West,276,3.0,9.0,37,0.00,,---,0.00,VWS V14.01,2013-03-21 18:30:00,
2013-03-21 14:35:00,36.3,12.5,29.80,North,350,3.0,5.0,37,0.00,,---,0.00,VWS V14.01,2013-03-21 18:35:00,
2013-03-21 14:40:00,36.8,12.4,29.80,NNW,327,2.0,11.0,36,0.00,,---,0.00,VWS V14.01,2013-03-21 18:40:00,
2013-03-21 14:45:00,36.3,11.3,29.80,WNW,286,5.0,11.0,35,0.00,,---,0.00,VWS V14.01,2013-03-21 18:45:00,
2013-03-21 14:50:00,36.0,11.6,29.80,West,278,3.0,11.0,36,0.00,,---,0.00,VWS V14.01,2013-03-21 18:50:00,
2013-03-21 14:55:00,36.4,11.4,29.80,West,260,6.0,11.0,35,0.00,,---,0.00,VWS V14.01,2013-03-21 18:55:00,
2013-03-21 15:00:00,36.6,11.6,29.80,NE,51,3.0,11.0,35,0.00,,---,0.00,VWS V14.01,2013-03-21 19:00:00,
2013-03-21 15:05:00,36.6,12.2,29.80,WNW,284,4.0,6.0,36,0.00,,---,0.00,VWS V14.01,2013-03-21 19:05:00,
2013-03-21 15:10:00,36.0,11.6,29.80,WNW,295,5.0,8.0,36,0.00,,---,0.00,VWS V14.01,2013-03-21 19:10:00,
2013-03-21 15:15:00,35.7,12.0,29.80,West,273,3.0,8.0,37,0.00,,---,0.00,VWS V14.01,2013-03-21 19:15:00,
2013-03-21 15:20:00,36.0,11.6,29.80,SW,229,3.0,8.0,36,0.00,,---,0.00,VWS V14.01,2013-03-21 19:20:00,
2013-03-21 15:25:00,36.0,10.4,29.80,NW,308,2.0,8.0,34,0.00,,---,0.00,VWS V14.01,2013-03-21 19:25:00,
2013-03-21 15:30:00,35.4,10.5,29.80,South,181,1.0,10.0,35,0.00,,---,0.00,VWS V14.01,2013-03-21 19:30:00,
2013-03-21 15:35:00,35.5,11.8,29.80,WSW,255,3.0,5.0,37,0.00,,---,0.00,VWS V14.01,2013-03-21 19:35:00,
2013-03-21 15:40:00,35.9,12.2,29.80,NW,316,3.0,10.0,37,0.00,,---,0.00,VWS V14.01,2013-03-21 19:40:00,
2013-03-21 15:45:00,35.6,12.5,29.80,North,1,2.0,11.0,38,0.00,,---,0.00,VWS V14.01,2013-03-21 19:45:00,
2013-03-21 15:50:00,35.9,13.4,29.80,WSW,246,3.0,11.0,39,0.00,,---,0.00,VWS V14.01,2013-03-21 19:50:00,
2013-03-21 15:55:00,35.5,11.8,29.81,SW,233,9.0,11.0,37,0.00,,---,0.00,VWS V14.01,2013-03-21 19:55:00,
2013-03-21 16:00:00,35.2,10.9,29.80,WSW,252,5.0,11.0,36,0.00,,---,0.00,VWS V14.01,2013-03-21 20:00:00,
2013-03-21 16:05:00,35.3,12.2,29.80,West,263,1.0,5.0,38,0.00,,---,0.00,VWS V14.01,2013-03-21 20:05:00,
2013-03-21 16:10:00,35.1,11.5,29.81,NW,316,3.0,9.0,37,0.00,,---,0.00,VWS V14.01,2013-03-21 20:10:00,
2013-03-21 16:15:00,34.9,11.9,29.81,ENE,63,2.0,9.0,38,0.00,,---,0.00,VWS V14.01,2013-03-21 20:15:00,
2013-03-21 16:20:00,34.8,11.2,29.81,North,351,2.0,9.0,37,0.00,,---,0.00,VWS V14.01,2013-03-21 20:20:00,
2013-03-21 16:25:00,34.7,12.3,29.81,SW,229,4.0,9.0,39,0.00,,---,0.00,VWS V14.01,2013-03-21 20:25:00,
2013-03-21 16:30:00,34.7,11.7,29.81,WNW,300,3.0,9.0,38,0.00,,---,0.00,VWS V14.01,2013-03-21 20:30:00,
2013-03-21 16:35:00,35.1,12.1,29.81,SW,228,2.0,10.0,38,0.00,,---,0.00,VWS V14.01,2013-03-21 20:35:00,
2013-03-21 16:40:00,35.2,12.1,29.81,WNW,290,2.0,10.0,38,0.00,,---,0.00,VWS V14.01,2013-03-21 20:40:00,
2013-03-21 16:45:00,35.1,11.5,29.81,WNW,295,4.0,10.0,37,0.00,,---,0.00,VWS V14.01,2013-03-21 20:45:00,
2013-03-21 16:50:00,34.7,12.3,29.81,WNW,295,1.0,10.0,39,0.00,,---,0.00,VWS V14.01,2013-03-21 20:50:00,
2013-03-21 16:55:00,34.9,11.3,29.81,WNW,292,3.0,10.0,37,0.00,,---,0.00,VWS V14.01,2013-03-21 20:55:00,
2013-03-21 17:00:00,35.1,11.5,29.81,West,264,3.0,10.0,37,0.00,,---,0.00,VWS V14.01,2013-03-21 21:00:00,
2013-03-21 17:05:00,35.4,11.1,29.82,NW,326,3.0,7.0,36,0.00,,---,0.00,VWS V14.01,2013-03-21 21:05:00,
2013-03-21 17:10:00,34.9,10.0,29.82,NW,311,0.0,10.0,35,0.00,,---,0.00,VWS V14.01,2013-03-21 21:10:00,
2013-03-21 17:15:00,34.8,9.9,29.82,ENE,60,3.0,10.0,35,0.00,,---,0.00,VWS V14.01,2013-03-21 21:15:00,
2013-03-21 17:20:00,34.9,10.7,29.82,NW,317,4.0,10.0,36,0.00,,---,0.00,VWS V14.01,2013-03-21 21:20:00,
2013-03-21 17:25:00,34.7,10.5,29.82,North,5,1.0,10.0,36,0.00,,---,0.00,VWS V14.01,2013-03-21 21:25:00,
2013-03-21 17:30:00,34.7,9.9,29.82,West,280,1.0,10.0,35,0.00,,---,0.00,VWS V14.01,2013-03-21 21:30:00,
2013-03-21 17:35:00,34.8,11.8,29.82,West,264,3.0,4.0,38,0.00,,---,0.00,VWS V14.01,2013-03-21 21:35:00,
2013-03-21 17:40:00,34.7,9.9,29.83,NNW,332,6.0,8.0,35,0.00,,---,0.00,VWS V14.01,2013-03-21 21:40:00,
2013-03-21 17:45:00,34.5,9.7,29.83,NE,42,3.0,8.0,35,0.00,,---,0.00,VWS V14.01,2013-03-21 21:45:00,
2013-03-21 17:50:00,34.5,10.3,29.83,NW,306,3.0,8.0,36,0.00,,---,0.00,VWS V14.01,2013-03-21 21:50:00,
2013-03-21 17:55:00,34.2,9.4,29.83,WSW,257,0.0,10.0,35,0.00,,---,0.00,VWS V14.01,2013-03-21 21:55:00,
2013-03-21 18:00:00,33.9,9.8,29.84,SW,233,4.0,10.0,36,0.00,,---,0.00,VWS V14.01,2013-03-21 22:00:00,
2013-03-21 18:05:00,33.9,9.8,29.84,WSW,252,3.0,9.0,36,0.00,,---,0.00,VWS V14.01,2013-03-21 22:05:00,
2013-03-21 18:10:00,33.7,10.2,29.84,WSW,242,3.0,11.0,37,0.00,,---,0.00,VWS V14.01,2013-03-21 22:10:00,
2013-03-21 18:15:00,33.6,10.1,29.84,SW,222,6.0,11.0,37,0.00,,---,0.00,VWS V14.01,2013-03-21 22:15:00,
2013-03-21 18:20:00,33.6,11.3,29.84,WNW,301,3.0,11.0,39,0.00,,---,0.00,VWS V14.01,2013-03-21 22:20:00,
2013-03-21 18:25:00,33.7,10.8,29.84,WNW,290,6.0,11.0,38,0.00,,---,0.00,VWS V14.01,2013-03-21 22:25:00,
2013-03-21 18:30:00,33.6,10.7,29.84,WSW,257,3.0,11.0,38,0.00,,---,0.00,VWS V14.01,2013-03-21 22:30:00,
2013-03-21 18:35:00,33.6,10.7,29.85,North,356,1.0,4.0,38,0.00,,---,0.00,VWS V14.01,2013-03-21 22:35:00,
2013-03-21 18:40:00,33.6,10.1,29.85,WNW,298,2.0,6.0,37,0.00,,---,0.00,VWS V14.01,2013-03-21 22:40:00,
2013-03-21 18:45:00,33.5,9.4,29.85,West,265,0.0,9.0,36,0.00,,---,0.00,VWS V14.01,2013-03-21 22:45:00,
2013-03-21 18:50:00,33.3,9.2,29.85,NNW,333,2.0,9.0,36,0.00,,---,0.00,VWS V14.01,2013-03-21 22:50:00,
2013-03-21 18:55:00,33.1,9.1,29.86,NW,313,5.0,9.0,36,0.00,,---,0.00,VWS V14.01,2013-03-21 22:55:00,
2013-03-21 19:00:00,33.0,9.6,29.86,NNW,347,3.0,9.0,37,0.00,,---,0.00,VWS V14.01,2013-03-21 23:00:00,
2013-03-21 19:05:00,32.9,8.9,29.86,NE,51,0.0,11.0,36,0.00,,---,0.00,VWS V14.01,2013-03-21 23:05:00,
2013-03-21 19:10:00,32.7,9.3,29.86,NNW,339,3.0,11.0,37,0.00,,---,0.00,VWS V14.01,2013-03-21 23:10:00,
2013-03-21 19:15:00,32.6,8.6,29.87,WSW,242,1.0,11.0,36,0.00,,---,0.00,VWS V14.01,2013-03-21 23:15:00,
2013-03-21 19:20:00,32.4,8.4,29.87,SE,137,1.0,11.0,36,0.00,,---,0.00,VWS V14.01,2013-03-21 23:20:00,
2013-03-21 19:25:00,32.2,8.9,29.87,NNW,341,3.0,11.0,37,0.00,,---,0.00,VWS V14.01,2013-03-21 23:25:00,
2013-03-21 19:30:00,32.1,8.2,29.87,ENE,77,1.0,11.0,36,0.00,,---,0.00,VWS V14.01,2013-03-21 23:30:00,
2013-03-21 19:35:00,32.0,9.3,29.88,NNE,17,0.0,5.0,38,0.00,,---,0.00,VWS V14.01,2013-03-21 23:35:00,
2013-03-21 19:40:00,31.9,9.2,29.88,WSW,256,2.0,8.0,38,0.00,,---,0.00,VWS V14.01,2013-03-21 23:40:00,
2013-03-21 19:45:00,31.8,9.1,29.88,NNW,347,2.0,9.0,38,0.00,,---,0.00,VWS V14.01,2013-03-21 23:45:00,
2013-03-21 19:50:00,31.8,9.1,29.88,ENE,67,3.0,9.0,38,0.00,,---,0.00,VWS V14.01,2013-03-21 23:50:00,
2013-03-21 19:55:00,31.6,8.9,29.88,WSW,240,1.0,9.0,38,0.00,,---,0.00,VWS V14.01,2013-03-21 23:55:00,
2013-03-21 20:00:00,31.6,9.5,29.88,SW,221,1.0,9.0,39,0.00,,---,0.00,VWS V14.01,2013-03-22 00:00:00,
2013-03-21 20:05:00,31.4,9.3,29.88,WSW,257,3.0,7.0,39,0.00,,---,0.00,VWS V14.01,2013-03-22 00:05:00,
2013-03-21 20:10:00,31.4,9.9,29.88,NNW,329,2.0,7.0,40,0.00,,---,0.00,VWS V14.01,2013-03-22 00:10:00,
2013-03-21 20:15:00,31.2,9.7,29.88,WNW,294,3.0,7.0,40,0.00,,---,0.00,VWS V14.01,2013-03-22 00:15:00,
2013-03-21 20:20:00,31.2,9.1,29.88,NNW,332,1.0,7.0,39,0.00,,---,0.00,VWS V14.01,2013-03-22 00:20:00,
2013-03-21 20:25:00,31.1,9.6,29.89,WNW,297,2.0,7.0,40,0.00,,---,0.00,VWS V14.01,2013-03-22 00:25:00,
2013-03-21 20:30:00,31.0,9.0,29.89,NNE,26,1.0,7.0,39,0.00,,---,0.00,VWS V14.01,2013-03-22 00:30:00,
2013-03-21 20:35:00,31.0,9.5,29.89,West,278,2.0,6.0,40,0.00,,---,0.00,VWS V14.01,2013-03-22 00:35:00,
2013-03-21 20:40:00,30.9,9.4,29.89,West,271,2.0,8.0,40,0.00,,---,0.00,VWS V14.01,2013-03-22 00:40:00,
2013-03-21 20:45:00,30.8,9.3,29.90,WSW,255,2.0,8.0,40,0.00,,---,0.00,VWS V14.01,2013-03-22 00:45:00,
2013-03-21 20:50:00,30.7,9.2,29.90,WNW,297,0.0,8.0,40,0.00,,---,0.00,VWS V14.01,2013-03-22 00:50:00,
2013-03-21 20:55:00,30.6,9.2,29.90,SE,132,1.0,8.0,40,0.00,,---,0.00,VWS V14.01,2013-03-22 00:55:00,
2013-03-21 21:00:00,30.6,9.2,29.91,SW,232,1.0,8.0,40,0.00,,---,0.00,VWS V14.01,2013-03-22 01:00:00,
2013-03-21 21:05:00,30.6,9.2,29.91,ENE,73,1.0,7.0,40,0.00,,---,0.00,VWS V14.01,2013-03-22 01:05:00,
2013-03-21 21:10:00,30.5,9.6,29.91,West,261,0.0,7.0,41,0.00,,---,0.00,VWS V14.01,2013-03-22 01:10:00,
2013-03-21 21:15:00,30.4,9.5,29.91,SW,231,1.0,7.0,41,0.00,,---,0.00,VWS V14.01,2013-03-22 01:15:00,
2013-03-21 21:20:00,30.3,9.4,29.92,WNW,285,0.0,7.0,41,0.00,,---,0.00,VWS V14.01,2013-03-22 01:20:00,
2013-03-21 21:25:00,30.2,9.4,29.92,NW,324,0.0,7.0,41,0.00,,---,0.00,VWS V14.01,2013-03-22 01:25:00,
2013-03-21 21:30:00,30.1,9.3,29.92,West,266,0.0,7.0,41,0.00,,---,0.00,VWS V14.01,2013-03-22 01:30:00,
2013-03-21 21:35:00,30.0,9.7,29.92,West,281,0.0,5.0,42,0.00,,---,0.00,VWS V14.01,2013-03-22 01:35:00,
2013-03-21 21:40:00,29.9,9.1,29.92,WNW,295,5.0,5.0,41,0.00,,---,0.00,VWS V14.01,2013-03-22 01:40:00,
2013-03-21 21:45:00,29.9,10.1,29.92,North,1,0.0,5.0,43,0.00,,---,0.00,VWS V14.01,2013-03-22 01:45:00,
2013-03-21 21:50:00,29.8,9.5,29.93,WNW,284,1.0,5.0,42,0.00,,---,0.00,VWS V14.01,2013-03-22 01:50:00,
2013-03-21 21:55:00,29.7,10.0,29.93,West,281,0.0,5.0,43,0.00,,---,0.00,VWS V14.01,2013-03-22 01:55:00,
2013-03-21 22:00:00,29.5,9.8,29.93,WNW,285,0.0,5.0,43,0.00,,---,0.00,VWS V14.01,2013-03-22 02:00:00,
2013-03-21 22:05:00,29.5,9.8,29.93,SW,214,2.0,4.0,43,0.00,,---,0.00,VWS V14.01,2013-03-22 02:05:00,
2013-03-21 22:10:00,29.6,9.9,29.92,WNW,284,1.0,4.0,43,0.00,,---,0.00,VWS V14.01,2013-03-22 02:10:00,
2013-03-21 22:15:00,29.5,9.8,29.92,West,273,0.0,4.0,43,0.00,,---,0.00,VWS V14.01,2013-03-22 02:15:00,
2013-03-21 22:20:00,29.4,10.7,29.93,West,262,0.0,4.0,45,0.00,,---,0.00,VWS V14.01,2013-03-22 02:20:00,
2013-03-21 22:25:00,29.4,10.2,29.93,WNW,290,2.0,4.0,44,0.00,,---,0.00,VWS V14.01,2013-03-22 02:25:00,
2013-03-21 22:30:00,29.4,10.7,29.93,WSW,250,1.0,4.0,45,0.00,,---,0.00,VWS V14.01,2013-03-22 02:30:00,
2013-03-21 22:35:00,29.4,10.2,29.93,WNW,284,1.0,4.0,44,0.00,,---,0.00,VWS V14.01,2013-03-22 02:35:00,
2013-03-21 22:40:00,29.4,10.2,29.93,West,273,3.0,4.0,44,0.00,,---,0.00,VWS V14.01,2013-03-22 02:40:00,
2013-03-21 22:45:00,29.4,10.2,29.93,West,274,1.0,4.0,44,0.00,,---,0.00,VWS V14.01,2013-03-22 02:45:00,
2013-03-21 22:50:00,29.3,10.1,29.93,WSW,240,3.0,4.0,44,0.00,,---,0.00,VWS V14.01,2013-03-22 02:50:00,
2013-03-21 22:55:00,29.3,10.1,29.93,WNW,284,3.0,4.0,44,0.00,,---,0.00,VWS V14.01,2013-03-22 02:55:00,
2013-03-21 23:00:00,29.4,10.2,29.93,West,280,1.0,4.0,44,0.00,,---,0.00,VWS V14.01,2013-03-22 03:00:00,
2013-03-21 23:05:00,29.3,10.1,29.93,West,269,0.0,1.0,44,0.00,,---,0.00,VWS V14.01,2013-03-22 03:05:00,
2013-03-21 23:10:00,29.2,10.5,29.93,WNW,285,0.0,2.0,45,0.00,,---,0.00,VWS V14.01,2013-03-22 03:10:00,
2013-03-21 23:15:00,29.2,10.0,29.94,WSW,242,0.0,3.0,44,0.00,,---,0.00,VWS V14.01,2013-03-22 03:15:00,
2013-03-21 23:20:00,29.1,9.9,29.94,West,267,0.0,3.0,44,0.00,,---,0.00,VWS V14.01,2013-03-22 03:20:00,
2013-03-21 23:25:00,29.0,10.3,29.94,SSW,209,0.0,3.0,45,0.00,,---,0.00,VWS V14.01,2013-03-22 03:25:00,
2013-03-21 23:30:00,29.0,9.8,29.94,SW,225,1.0,3.0,44,0.00,,---,0.00,VWS V14.01,2013-03-22 03:30:00,
2013-03-21 23:35:00,29.0,10.3,29.94,WNW,300,1.0,3.0,45,0.00,,---,0.00,VWS V14.01,2013-03-22 03:35:00,
2013-03-21 23:40:00,28.9,10.7,29.94,WSW,253,1.0,3.0,46,0.00,,---,0.00,VWS V14.01,2013-03-22 03:40:00,
2013-03-21 23:45:00,28.8,10.6,29.94,West,281,1.0,3.0,46,0.00,,---,0.00,VWS V14.01,2013-03-22 03:45:00,
2013-03-21 23:50:00,28.9,10.7,29.94,WNW,291,2.0,3.0,46,0.00,,---,0.00,VWS V14.01,2013-03-22 03:50:00,
2013-03-21 23:55:00,29.0,10.8,29.93,West,277,1.0,4.0,46,0.00,,---,0.00,VWS V14.01,2013-03-22 03:55:00,